カタログに戻る

SL-14 DEB

運用中PO
NORAD 47090·DEBRIS·🇷🇺 Russia

打ち上げ Aug 15, 1991 から Plesetsk Cosmodrome

Loading…

次のパス (今後24時間)

TLE

最新Source: Space-Track

元期: Sep 14, 2026, 03:07 UTC

1 47090U 91056DQ  26257.12998450  .00003916  00000-0  65297-2 0  9991
2 47090  82.6236  48.6993 0084554 302.1357  57.1596 13.44704233285217

AllMySatでSL-14 DEBをリアルタイム追跡

Download on the App Store